Flag for U.S.A. Weather past 2 weeks in Santa Fe, New Mexico, U.S.A.

Now
51 °F

Clear.


Feels Like: 49 °F
Forecast: 51 / 70 °F
Wind: 7 mph from Northeast

Location: Santa Fe County Municipal Airport

Current Time: Sep 18, 2014 at 2:22:07 AM

Latest Report: Sep 18, 2014 at 1:53 AM


Visibility: 10 mi

Pressure: 29.93 "Hg

Humidity: 80%

Dew point: 45 °F

Location of Santa FeLocation

Historic Weather in Santa Fe — Graph

°F

Santa Fe temperature yesterday

Maximum temperature yesterday: 66 °F (at 4:53 PM)
Minimum temperature yesterday: 55 °F (at 6:53 AM)
Average temperature yesterday: 61 °F

Past Weeks' High & Low Weather Summary

 TemperatureHumidityPressure
High90 °F (Sep 3, 2:53 PM)87% (Sep 8, 6:53 AM)30.36 "Hg (Sep 8, 6:53 AM)
Low45 °F (Sep 13, 4:53 AM)10% (Sep 3, 2:53 PM)29.69 "Hg (Sep 3, 4:53 PM)
Average66 °F55%29.95 "Hg
* Reported Sep 3 12:53 AM — Sep 18 12:53 AM, Santa Fe, Weather by CustomWeather, © 2014

Note: Actual official high and low records may vary slightly from our data, if they occured in-between our weather recording intervals... More about our weather records

Advertising

Santa Fe weather history for previous 24 hours

 ConditionsComfort  
Time TempWeatherWind HumidityBarometerVisibility
12:53 AM
Sep 18
54 °FClear.5 mph74%29.93 "Hg10 mi
11:53 PM
Sep 17
57 °FClear.7 mph72%29.92 "Hg10 mi
10:53 PM62 °FClear.No wind62%29.92 "Hg10 mi
9:53 PM63 °FPassing clouds.No wind58%29.92 "Hg10 mi
8:53 PM62 °FPassing clouds.6 mph62%29.92 "Hg10 mi
7:53 PM65 °FPartly sunny.3 mph56%29.91 "Hg10 mi
6:53 PM66 °FPassing clouds.No wind54%29.89 "Hg10 mi
5:53 PM66 °FPartly sunny.No wind59%29.89 "Hg10 mi
4:53 PM66 °FOvercast.5 mph61%29.90 "Hg10 mi
3:53 PM65 °FOvercast.5 mph63%29.93 "Hg10 mi
2:53 PM65 °FOvercast.5 mph66%29.95 "Hg10 mi
1:53 PM64 °FOvercast.7 mph70%29.97 "Hg10 mi
12:53 PM63 °FLight rain. Overcast.7 mph73%29.98 "Hg10 mi
11:53 AM64 °FPartly sunny.6 mph65%29.99 "Hg10 mi
10:53 AM62 °FPassing clouds.5 mph73%30.00 "Hg10 mi
9:53 AM61 °FPartly sunny.No wind72%30.01 "Hg10 mi
8:53 AM59 °FPartly sunny.No wind75%30.00 "Hg10 mi
7:53 AM57 °FSunny.No wind81%29.98 "Hg10 mi
6:53 AM55 °FClear.No wind83%29.97 "Hg10 mi
5:53 AM56 °FClear.No wind81%29.95 "Hg10 mi
4:53 AM57 °FClear.No wind81%29.93 "Hg10 mi
3:53 AM58 °FClear.No wind78%29.94 "Hg10 mi
2:53 AM58 °FClear.No wind78%29.96 "Hg10 mi
Weather by CustomWeather, © 2014

See weather overviewHow to use our weather pages